When you browse on this site, cookies collect data to enhance your experience and personalize the content and advertising you see.
Visit our Privacy Policy to learn more. By continuing to use the site, you agree to this use of cookies and data.
  • In Sweden
  • List of Countries
  • For 7 days
  • Water Temperature
  • Satellite Maps
  • Weather Map
  • Weather Widgets
  • user-avatar
    Login

    Hourly Weather Pontypridd

    Today, 18 June, Tuesday

    Time Temperature Precipitation Wind Pressure Humidity
    00:00 +12°C° 0 mm 1 mps 751 mmHg 97%
    01:00 +12°C° 0 mm 1 mps 751 mmHg 97%
    02:00 +12°C° 0 mm 1 mps 751 mmHg 97%
    03:00 +12°C° 0 mm 1 mps 750 mmHg 96%
    04:00 +12°C° 0 mm 1 mps 750 mmHg 95%
    05:00 +12°C° 0 mm 1 mps 750 mmHg 94%
    06:00 +13°C° 0 mm 1 mps 750 mmHg 93%
    07:00 +14°C° 0 mm 1 mps 750 mmHg 91%
    08:00 +14°C° 0 mm 1 mps 750 mmHg 89%
    09:00 +15°C° 0 mm 2 mps 750 mmHg 86%
    10:00 +15°C° 0.6 mm 2 mps 750 mmHg 88%
    11:00 +14°C° 0.6 mm 1 mps 750 mmHg 90%
    12:00 +14°C° 0.6 mm 1 mps 750 mmHg 92%
    13:00 +14°C° 0.6 mm 1 mps 749 mmHg 94%
    14:00 +13°C° 0.6 mm 1 mps 749 mmHg 95%
    15:00 +13°C° 0.6 mm 1 mps 749 mmHg 97%
    16:00 +14°C° 0 mm 1 mps 749 mmHg 94%
    17:00 +14°C° 0 mm 1 mps 748 mmHg 90%
    18:00 +15°C° 0 mm 1 mps 748 mmHg 87%
    19:00 +14°C° 0 mm 1 mps 748 mmHg 89%
    20:00 +14°C° 0 mm 1 mps 748 mmHg 92%
    21:00 +12°C° 0 mm 0 mps 748 mmHg 94%
    22:00 +13°C° 0.1 mm 1 mps 747 mmHg 94%
    23:00 +13°C° 0.1 mm 1 mps 747 mmHg 94%

    Tomorrow, 19 June, Wednesday

    Time Temperature Precipitation Wind Pressure Humidity
    00:00 +13°C° 0.1 mm 1 mps 747 mmHg 95%
    01:00 +13°C° 0.1 mm 1 mps 746 mmHg 95%
    02:00 +13°C° 0.1 mm 1 mps 746 mmHg 95%
    03:00 +13°C° 0.1 mm 1 mps 745 mmHg 96%
    04:00 +13°C° 0.1 mm 1 mps 745 mmHg 96%
    05:00 +13°C° 0.1 mm 1 mps 745 mmHg 95%
    06:00 +14°C° 0.1 mm 1 mps 746 mmHg 95%
    07:00 +14°C° 0.1 mm 2 mps 746 mmHg 93%
    08:00 +15°C° 0.1 mm 2 mps 746 mmHg 90%
    09:00 +16°C° 0.1 mm 3 mps 746 mmHg 88%
    10:00 +16°C° 0.3 mm 3 mps 746 mmHg 86%
    11:00 +16°C° 0.3 mm 3 mps 747 mmHg 84%
    12:00 +15°C° 0.3 mm 4 mps 747 mmHg 82%
    13:00 +15°C° 0.2 mm 4 mps 747 mmHg 81%
    14:00 +15°C° 0.2 mm 5 mps 747 mmHg 81%
    15:00 +15°C° 0.2 mm 6 mps 747 mmHg 81%
    16:00 +15°C° 0 mm 6 mps 747 mmHg 80%
    17:00 +15°C° 0 mm 6 mps 747 mmHg 79%
    18:00 +14°C° 0 mm 6 mps 747 mmHg 78%
    19:00 +12°C° 0 mm 5 mps 747 mmHg 83%
    20:00 +11°C° 0 mm 4 mps 747 mmHg 88%
    21:00 +9°C° 0 mm 3 mps 748 mmHg 93%
    22:00 +9°C° 0 mm 3 mps 748 mmHg 94%
    23:00 +9°C° 0 mm 3 mps 748 mmHg 96%

    Day after tomorrow, 20 June, Thursday

    Time Temperature Precipitation Wind Pressure Humidity
    00:00 +9°C° 0 mm 3 mps 748 mmHg 97%
    01:00 +9°C° 0 mm 3 mps 748 mmHg 96%
    02:00 +10°C° 0 mm 4 mps 748 mmHg 96%
    03:00 +10°C° 0 mm 4 mps 748 mmHg 95%
    04:00 +10°C° 0 mm 4 mps 748 mmHg 94%
    05:00 +11°C° 0 mm 4 mps 748 mmHg 92%
    06:00 +11°C° 0 mm 4 mps 748 mmHg 91%
    07:00 +12°C° 0.1 mm 4 mps 749 mmHg 87%
    08:00 +13°C° 0.1 mm 5 mps 749 mmHg 83%
    09:00 +14°C° 0.1 mm 5 mps 749 mmHg 78%
    10:00 +14°C° 0.1 mm 6 mps 749 mmHg 78%
    11:00 +14°C° 0.1 mm 6 mps 749 mmHg 77%
    12:00 +14°C° 0.1 mm 6 mps 750 mmHg 76%
    13:00 +14°C° 0 mm 6 mps 750 mmHg 74%
    14:00 +15°C° 0 mm 7 mps 750 mmHg 72%
    15:00 +15°C° 0 mm 7 mps 750 mmHg 70%
    16:00 +14°C° 0 mm 7 mps 750 mmHg 73%
    17:00 +14°C° 0 mm 6 mps 750 mmHg 76%
    18:00 +13°C° 0 mm 6 mps 750 mmHg 80%
    19:00 +12°C° 0 mm 5 mps 750 mmHg 84%
    20:00 +10°C° 0 mm 4 mps 751 mmHg 88%
    21:00 +8°C° 0 mm 4 mps 751 mmHg 93%
    22:00 +9°C° 0 mm 3 mps 751 mmHg 94%
    23:00 +8°C° 0 mm 3 mps 751 mmHg 95%

    21 June, Friday

    Time Temperature Precipitation Wind Pressure Humidity
    00:00 +8°C° 0 mm 3 mps 752 mmHg 96%
    01:00 +8°C° 0 mm 3 mps 752 mmHg 96%
    02:00 +8°C° 0 mm 3 mps 752 mmHg 96%
    03:00 +8°C° 0 mm 3 mps 752 mmHg 96%
    04:00 +9°C° 0 mm 3 mps 752 mmHg 93%
    05:00 +10°C° 0 mm 3 mps 752 mmHg 90%
    06:00 +10°C° 0 mm 2 mps 752 mmHg 88%
    07:00 +12°C° 0 mm 3 mps 753 mmHg 84%
    08:00 +13°C° 0 mm 3 mps 753 mmHg 81%
    09:00 +14°C° 0 mm 4 mps 753 mmHg 77%
    10:00 +14°C° 0.1 mm 4 mps 753 mmHg 74%
    11:00 +15°C° 0.1 mm 4 mps 753 mmHg 71%
    12:00 +15°C° 0.1 mm 4 mps 754 mmHg 68%
    13:00 +15°C° 0 mm 5 mps 754 mmHg 69%
    14:00 +15°C° 0 mm 5 mps 754 mmHg 69%
    15:00 +15°C° 0 mm 5 mps 754 mmHg 70%
    16:00 +14°C° 0 mm 5 mps 754 mmHg 72%
    17:00 +14°C° 0 mm 4 mps 754 mmHg 73%
    18:00 +13°C° 0 mm 4 mps 754 mmHg 75%
    19:00 +12°C° 0 mm 3 mps 754 mmHg 79%
    20:00 +10°C° 0 mm 3 mps 755 mmHg 84%
    21:00 +8°C° 0 mm 2 mps 755 mmHg 88%
    22:00 +8°C° 0 mm 2 mps 755 mmHg 89%
    23:00 +7°C° 0 mm 2 mps 755 mmHg 89%

    22 June, Saturday

    Time Temperature Precipitation Wind Pressure Humidity
    00:00 +8°C° 0 mm 1 mps 755 mmHg 89%
    01:00 +8°C° 0 mm 1 mps 755 mmHg 88%
    02:00 +7°C° 0 mm 1 mps 755 mmHg 87%
    03:00 +7°C° 0 mm 1 mps 755 mmHg 86%
    04:00 +8°C° 0 mm 1 mps 755 mmHg 84%
    05:00 +9°C° 0 mm 1 mps 755 mmHg 82%
    06:00 +10°C° 0 mm 1 mps 755 mmHg 80%
    07:00 +12°C° 0 mm 1 mps 755 mmHg 76%
    08:00 +13°C° 0 mm 1 mps 755 mmHg 72%
    09:00 +15°C° 0 mm 1 mps 755 mmHg 68%
    10:00 +16°C° 0 mm 1 mps 755 mmHg 67%
    11:00 +16°C° 0 mm 2 mps 755 mmHg 66%
    12:00 +17°C° 0 mm 2 mps 755 mmHg 65%
    13:00 +18°C° 0 mm 2 mps 755 mmHg 64%
    14:00 +19°C° 0 mm 1 mps 755 mmHg 63%
    15:00 +19°C° 0 mm 1 mps 755 mmHg 62%
    16:00 +19°C° 0 mm 1 mps 754 mmHg 64%
    17:00 +19°C° 0 mm 1 mps 754 mmHg 66%
    18:00 +19°C° 0 mm 1 mps 754 mmHg 68%
    19:00 +16°C° 0 mm 1 mps 754 mmHg 72%
    20:00 +14°C° 0 mm 1 mps 754 mmHg 77%
    21:00 +12°C° 0 mm 1 mps 754 mmHg 82%
    22:00 +12°C° 0 mm 1 mps 754 mmHg 83%
    23:00 +12°C° 0 mm 1 mps 754 mmHg 84%

    23 June, Sunday

    Time Temperature Precipitation Wind Pressure Humidity
    00:00 +12°C° 0 mm 2 mps 754 mmHg 86%
    01:00 +10°C° 0 mm 2 mps 754 mmHg 88%
    02:00 +10°C° 0 mm 2 mps 753 mmHg 90%
    03:00 +10°C° 0 mm 3 mps 753 mmHg 93%
    04:00 +11°C° 0 mm 3 mps 753 mmHg 91%
    05:00 +11°C° 0 mm 3 mps 753 mmHg 90%
    06:00 +12°C° 0 mm 3 mps 753 mmHg 89%
    07:00 +13°C° 0 mm 3 mps 753 mmHg 86%
    08:00 +14°C° 0 mm 4 mps 753 mmHg 82%
    09:00 +15°C° 0 mm 4 mps 753 mmHg 79%
    10:00 +16°C° 0 mm 5 mps 753 mmHg 76%
    11:00 +19°C° 0 mm 5 mps 753 mmHg 73%
    12:00 +20°C° 0 mm 6 mps 753 mmHg 70%
    13:00 +20°C° 0.1 mm 6 mps 752 mmHg 70%
    14:00 +20°C° 0.1 mm 6 mps 752 mmHg 71%
    15:00 +20°C° 0.1 mm 6 mps 752 mmHg 71%
    16:00 +19°C° 0.3 mm 5 mps 752 mmHg 77%
    17:00 +17°C° 0.3 mm 5 mps 752 mmHg 82%
    18:00 +17°C° 0.3 mm 4 mps 751 mmHg 88%
    19:00 +15°C° 0.3 mm 4 mps 751 mmHg 91%
    20:00 +15°C° 0.3 mm 4 mps 751 mmHg 93%
    21:00 +14°C° 0.3 mm 4 mps 751 mmHg 96%
    22:00 +14°C° 0.8 mm 6 mps 751 mmHg 96%
    23:00 +12°C° 0.8 mm 7 mps 750 mmHg 96%
    Show more